Regional Weather Roundup
Issued by NWS Cleveland, OH

Home | Current Version | Previous Version | Graphics & Text | Print | Product List | Glossary On
Versions: 1 2 3 4 5 6 7 8 9 10 11 12 13 14 15 16 17 18 19 20 21 22 23 24 25 26 27 28 29 30 31 32 33 34 35 36 37 38 39 40 41 42 43 44 45 46 47 48 49 50
000
ASUS41 KCLE 211210
RWRCLE
OHIO REGIONAL WEATHER ROUNDUP
NATIONAL WEATHER SERVICE WILMINGTON, OH
800 AM EDT FRI JUL 21 2017

NOTE: "FAIR" INDICATES FEW OR NO CLOUDS BELOW 12,000 FEET WITH NO
SIGNIFICANT WEATHER AND/OR OBSTRUCTIONS TO VISIBILITY.

OHZ001>008-015>018-024>027-034-035-043-044-211300-
   NORTHWEST OHIO

CITY           SKY/WX    TMP DP  RH WIND       PRES   REMARKS
DEFIANCE       FAIR     N/A N/A N/A NW3       30.01R
FINDLAY        PTSUNNY   76  72  87 W3        29.99R FOG
TOLEDO EXPRESS FAIR      71  71 100 CALM      29.99R
TOLEDO EXEC    FAIR      76  72  87 VRB3      29.99R
LIMA           PTSUNNY   75  75 100 N6        30.01R FOG
$$

OHZ009>014-019>023-028>033-038-089-211300-
   NORTHEAST OHIO

CITY           SKY/WX    TMP DP  RH WIND       PRES   REMARKS
CLE-HOPKINS    PTSUNNY   77  72  84 CALM      30.00R
CLE-LAKEFRONT  PTSUNNY   78  71  79 SW3       29.96R
CUY CO. ARPT   PTSUNNY   79  73  83 W6        29.99R
LORAIN-ELYRIA  CLOUDY    73  68  84 CALM      30.00R
ASHTABULA      FAIR      74  71  91 CALM      30.00R
AKRON-CANTON   PTSUNNY   76  70  82 CALM      30.00R
WOOSTER        CLOUDY    75  73  93 CALM      30.01R
MANSFIELD      FAIR      76  74  93 NW5       30.00R FOG
YOUNGSTOWN     CLOUDY    73  71  93 CALM      30.00R
$$

OHZ042-051>053-060>062-070>072-077>081-211300-
  SOUTHWEST OHIO

CITY           SKY/WX    TMP DP  RH WIND       PRES   REMARKS
CINC-COVINGTON TSTM      78  75  90 NW20      30.06R
CINC-LUNKEN    CLOUDY    79  75  87 S6        30.03R
HAMILTON       LGT RAIN  75  71  87 NW13G24   30.06R FOG
DAYTON         TSTM      71  69  93 NW25G38   30.05R FOG
WRIGHT-PAT AFB TSTM      72  72 100 NW18G43   30.03R VSB 1
DAYTON GENERAL RAIN      71  68  90 NW16G25   30.05R FOG
WILMINGTON     FAIR      77  75  93 W9        30.01R FOG
$$

OHZ036-037-039>041-045>050-054>059-063>069-073>076-082>088-211300-
  CENTRAL AND SOUTHEAST OHIO

CITY           SKY/WX    TMP DP  RH WIND       PRES   REMARKS
COLUMBUS       CLOUDY    80  76  87 SW3       29.98R
OSU AIRPORT    PTSUNNY   79  76  90 W6        29.98R THUNDER
BOLTON FIELD   MOSUNNY   79  73  83 W3        29.99R
RICKENBACK AFB PTSUNNY   76  75  96 S5        29.98R
NEWARK         PTSUNNY   75  73  93 CALM      29.98R FOG
MARION         CLOUDY    77  73  87 CALM      30.00R FOG
LANCASTER      PTSUNNY   78  74  87 CALM      29.99R
ZANESVILLE     CLOUDY    75  73  93 S3        29.99R FOG
NEW PHILLY     PTSUNNY   74  74 100 CALM      30.00R FOG
$$




USA.gov is the U.S. government's official web portal to all federal, state and local government web resources and services.